Location: Andiroba
(19.8650°S, 43.9258°W)
Time: 00:31:12
(UTC+00:00)

Cosmos 1802 Rocket - Pass Details

Date: 15 June 2024
Orbit: 953 x 1012 km, 82.9° (Epoch: 24 July)

Event Time Altitude Azimuth Distance (km) Brightness Sun altitude
Exits shadow 07:05:52 51° 3° (N) 1,237 4.5 -32.3°
Drops below altitude 10° 07:10:28 10° 3° (N) 2,766 6.5 -31.3°
Sets 07:12:59 0° 3° (N) 3,715 7.3 -30.7°
